Regional Weather Roundup
Issued by NWS

Home | Current Version | Previous Version | Text Only | Print | Product List | Glossary Off
Versions: 1 2 3 4 5 6 7 8 9 10 11 12 13 14 15 16 17 18 19 20 21 22 23 24 25 26 27 28 29 30 31 32 33 34 35 36 37 38 39 40 41 42 43 44 45 46 47 48 49 50

000
ASUS43 KFSD 230110
RWRSD

WEATHER ROUNDUP FOR SOUTH DAKOTA
NATIONAL WEATHER SERVICE SIOUX FALLS SD
800 PM CDT SUN APR 22 2018

NOTE: "FAIR" INDICATES FEW OR NO CLOUDS BELOW 12,000 FEET WITH NO
SIGNIFICANT WEATHER AND/OR OBSTRUCTIONS TO VISIBILITY.


SDZ001>005-009-010-012>017-230200-
NORTHWEST AND NORTH CENTRAL SOUTH DAKOTA

CITY           SKY/WX    TMP DP  RH WIND       PRES   REMARKS
BUFFALO          N/A     64  33  31 NE10      30.00S
FAITH            N/A     62  39  42 SE10      30.07R
MOBRIDGE       CLEAR     61  40  45 SE12      30.08S
$$

SDZ012>016-024>037-041>051-057-063-072>074-230200-
SOUTHWEST AND SOUTH CENTRAL SOUTH DAKOTA

CITY           SKY/WX    TMP DP  RH WIND       PRES   REMARKS
RAPID CTY ARPT CLEAR     61  38  42 SE8       30.06S
PIERRE         CLEAR     59  40  49 SE13      30.11R
CUSTER         CLEAR     54  33  45 SE6       30.12R
ELLSWORTH AFB  CLEAR    N/A N/A N/A SE8       30.06S
PHILIP         CLEAR     62  39  42 SE13      30.08R
PINE RIDGE     CLEAR     61  38  42 S9        30.07S
SPEARFISH      FAIR      61  36  39 E14       30.07S
WINNER         FAIR      59  39  47 SE9       30.14S
$$

SDZ004>011-016>023-039-040-230200-
NORTHEAST SOUTH DAKOTA

CITY           SKY/WX    TMP DP  RH WIND       PRES   REMARKS
ABERDEEN       CLEAR     58  35  42 S12       30.16S
WATERTOWN      CLEAR     51  41  68 SE9       30.19S
BROOKINGS      CLEAR     52  39  61 SE10      30.21S
SISSETON         N/A     54  38  54 S12       30.18S
$$

SDZ017-020-022-023-036>040-048>070-230200-
SOUTHEAST SOUTH DAKOTA

CITY           SKY/WX    TMP DP  RH WIND       PRES   REMARKS
SIOUX FALLS    PTCLDY    55  38  52 E10       30.19S
HURON          CLEAR     57  39  51 SW5       30.17
CHAMBERLAIN    CLEAR     58  38  46 SE6       30.15R
MITCHELL       CLEAR     60  38  43 S3        30.17S
YANKTON        CLEAR     60  39  45 E9        30.16S
$$

ABBREVIATIONS USED IN REMARKS
   TC - TEMPERATURE IN CELSIUS
  WCI - WIND CHILL INDEX
   HX - HEAT INDEX
  VSB - VISIBILITY




USA.gov is the U.S. government's official web portal to all federal, state and local government web resources and services.